FW1140 Weather Reports


time (UTC)temp
C
wind
direction
speed
KPH
gust
KPH
rain 1hr
cm
rain 24hr
cm
rain mn
cm
humidity
%
barometer
mb
20260505193031 8 300 24.1 30.6 0.00 0.00 0.00 40 1011.3
20260505191524 7 321 29.0 38.6 0.00 0.00 0.00 40 1011.1
20260505190030 8 335 19.3 35.4 0.00 0.00 0.00 39 1011.0
20260505184526 8 283 14.5 29.0 0.00 0.00 0.00 39 1010.9
20260505183025 8 304 20.9 37.0 0.00 0.00 0.00 39 1011.0
20260505181522 7 322 19.3 27.4 0.00 0.00 0.00 40 1011.1
20260505180022 8 359 17.7 35.4 0.00 0.00 0.00 42 1010.9
20260505174528 7 323 19.3 32.2 0.00 0.00 0.00 43 1010.8
20260505173020 7 311 22.5 41.8 0.00 0.00 0.00 42 1011.0
20260505171520 7 297 27.4 37.0 0.00 0.00 0.00 41 1011.0
20260505170020 7 330 20.9 32.2 0.00 0.00 0.00 41 1010.7
20260505164517 7 330 19.3 37.0 0.00 0.00 0.00 42 1010.6
20260505163016 7 309 19.3 35.4 0.00 0.00 0.00 39 1010.5
20260505161514 7 333 25.7 38.6 0.00 0.00 0.00 40 1010.3
20260505153009 8 307 27.4 37.0 0.00 0.00 0.00 39 1010.0
20260505151506 8 316 24.1 40.2 0.00 0.00 0.00 40 1010.0
20260505124525 3 275 11.3 20.9 0.00 0.00 0.00 64 1009.0
20260505123021 3 308 11.3 19.3 0.00 0.00 0.00 65 1008.7
20260505121516 2 285 9.7 17.7 0.00 0.00 0.00 66 1008.6
20260505120012 2 265 9.7 14.5 0.00 0.00 0.00 69 1008.3
20260505114507 1 293 11.3 22.5 0.00 0.00 0.00 69 1008.2
20260505113010 1 295 11.3 22.5 0.00 0.00 0.00 73 1008.2
20260505111501 0 261 6.4 12.9 0.00 0.00 0.00 77 1008.1
20260505101556 0 262 11.3 14.5 0.00 0.00 0.00 73 1007.6
20260505100055 1 269 9.7 14.5 0.00 0.00 0.00 73 1007.7
20260505094548 1 266 11.3 14.5 0.00 0.00 0.00 73 1007.7
20260505093045 1 262 8.0 12.9 0.00 0.00 0.00 73 1007.8
20260505091543 1 266 8.0 12.9 0.00 0.00 0.00 73 1007.7
20260505090054 1 260 8.0 11.3 0.00 0.00 0.00 71 1007.5
20260505084540 2 310 11.3 19.3 0.00 0.00 0.00 68 1007.5
20260505083036 2 301 11.3 20.9 0.00 0.00 0.00 67 1007.3
20260505081535 2 276 9.7 16.1 0.00 0.00 0.00 69 1007.1
20260505080030 3 240 11.3 17.7 0.00 0.00 0.00 68 1007.0
20260505074527 3 264 11.3 19.3 0.00 0.00 0.00 68 1006.9
20260505073035 3 262 12.9 19.3 0.00 0.00 0.00 67 1006.8
20260505071519 3 251 11.3 16.1 0.00 0.00 0.00 65 1006.8
20260505070017 3 255 11.3 17.7 0.00 0.00 0.00 65 1006.8
20260505064517 3 256 9.7 16.1 0.00 0.00 0.00 63 1006.8
20260505063015 4 271 9.7 14.5 0.00 0.00 0.00 63 1006.7
20260505061513 4 254 11.3 16.1 0.00 0.00 0.00 62 1006.7
20260505060023 4 264 11.3 16.1 0.00 0.00 0.00 62 1006.5
20260505054509 4 240 9.7 14.5 0.00 0.00 0.00 63 1006.4
20260505053005 4 259 8.0 12.9 0.00 0.00 0.00 63 1006.4
20260505051503 3 254 8.0 12.9 0.00 0.00 0.00 64 1006.3
20260505041553 5 266 9.7 12.9 0.00 0.00 0.00 60 1006.2
20260505040050 5 285 8.0 16.1 0.00 0.00 0.00 58 1006.3
20260505034548 5 274 9.7 19.3 0.00 0.00 0.00 57 1006.3
20260505033105 6 281 11.3 19.3 0.00 0.00 0.00 56 1006.0
20260505031542 6 295 9.7 16.1 0.00 0.00 0.00 54 1006.1
20260505030042 6 280 11.3 17.7 0.00 0.00 0.00 53 1005.8
20260505024541 6 287 9.7 14.5 0.00 0.00 0.00 53 1005.8
20260505023046 6 276 8.0 14.5 0.00 0.00 0.00 51 1005.5
20260505021534 6 295 9.7 16.1 0.00 0.00 0.00 50 1005.2
20260505020031 7 278 11.3 17.7 0.00 0.00 0.00 49 1004.9
20260505014531 7 289 11.3 20.9 0.00 0.00 0.00 47 1004.8
20260505013024 8 302 14.5 24.1 0.00 0.00 0.00 45 1004.6
20260505011522 8 319 20.9 30.6 0.00 0.00 0.00 44 1004.5
20260505010019 9 290 19.3 30.6 0.00 0.00 0.00 43 1004.4
20260505004535 10 329 22.5 37.0 0.00 0.00 0.00 42 1004.3
20260505003016 10 338 25.7 33.8 0.00 0.00 0.00 42 1004.1
20260505001515 10 337 29.0 38.6 0.00 0.00 0.00 41 1003.8
20260505000020 10 320 25.7 37.0 0.00 0.00 0.00 40 1003.9
20260504234525 11 297 24.1 41.8 0.00 0.00 0.00 38 1004.0
20260504233011 11 290 24.1 41.8 0.00 0.00 0.00 37 1003.8
20260504231530 11 330 32.2 41.8 0.00 0.00 0.00 38 1003.6
20260504230011 11 317 33.8 45.1 0.00 0.00 0.00 38 1003.6
20260504224508 11 325 29.0 45.1 0.00 0.00 0.00 37 1003.5
20260504223008 11 301 32.2 43.5 0.00 0.00 0.00 38 1003.4
20260504221506 11 315 30.6 48.3 0.00 0.00 0.00 38 1003.3
20260504220006 11 304 32.2 53.1 0.00 0.00 0.00 39 1003.3
20260504214509 11 304 33.8 41.8 0.00 0.00 0.00 38 1003.3
20260504213006 11 304 37.0 54.7 0.00 0.00 0.00 37 1003.0
20260504211503 11 307 38.6 53.1 0.00 0.00 0.00 37 1002.9
20260504210001 11 307 37.0 46.7 0.00 0.00 0.00 40 1002.9
20260504204500 10 309 25.7 51.5 0.00 0.00 0.00 42 1003.0
20260504203100 11 307 29.0 61.2 0.00 0.00 0.00 43 1003.0
20260504201559 11 303 35.4 57.9 0.00 0.00 0.00 45 1002.8
20260504200058 11 308 37.0 53.1 0.00 0.00 0.00 44 1002.5
20260504194558 11 334 37.0 56.3 0.00 0.00 0.00 45 1002.4